Weather History for MNMG - September, 2013

Change the Weather History Date:

Monday, September 23, 2013

  Actual Average Record
Temperature  
Mean Temperature 81 °F -  
Max Temperature 87 °F 86 °F 93 °F (1997)
Min Temperature 75 °F 71 °F 39 °F (2008)
Cooling Degree Days 16    
Growing Degree Days 31 (Base 50)    
Moisture  
Dew Point 74 °F    
Average Humidity 85    
Maximum Humidity 94    
Minimum Humidity 70    
Precipitation  
Precipitation 0.00 in - - ()
Sea Level Pressure  
Sea Level Pressure 29.81 in    
Wind  
Wind Speed 1 mph ()    
Max Wind Speed 7 mph    
Max Gust Speed -    
Visibility 5.8 miles    
Events Rain , Thunderstorm    
Averages and records for this station are not official NWS values.
T = Trace of Precipitation, MM = Missing Value Source: Averaged Metar Reports

Daily Weather History Graph

Daily Weather History Graph

Search for Another Location

Airport or City:

Trip Planner

Search our weather history database for the weather conditions in past years. The results will help you decide how hot, cold, wet, or windy it might be!

Date:

Astronomy

Sep. 23, 2013 Rise Set
Actual Time 5:33 AM CST 5:39 PM CST
Civil Twilight 5:12 AM CST 6:00 PM CST
Nautical Twilight 4:48 AM CST 6:25 PM CST
Astronomical Twilight 4:23 AM CST 6:50 PM CST
Moon 8:59 PM CST (9/23) 9:06 AM CST (9/23)
Length of Visible Light 12h 48m
Length of Day
12h 06m
Waning Gibbous, 81% of the Moon is Illuminated
Sep 23
Waning Gibbous
Sep 26
Last Quarter
Oct 4
New
Oct 11
First Quarter
Oct 18
Full

Hourly Weather History & Observations

Time (CST) Temp. Heat Index Dew Point Humidity Pressure Visibility Wind Dir Wind Speed Gust Speed Precip Events Conditions
12:00 AM 75.2 °F - 73.4 °F 94% 29.80 in 6.2 mi Calm Calm - N/A   Scattered Clouds
1:00 AM 75.2 °F - 73.4 °F 94% 29.80 in 6.2 mi Calm Calm - N/A   Scattered Clouds
2:00 AM 75.2 °F - 73.4 °F 94% 29.77 in 6.2 mi Calm Calm - N/A   Unknown
3:00 AM 75.2 °F - 71.6 °F 89% 29.77 in 6.2 mi Calm Calm - N/A   Scattered Clouds
4:00 AM 75.2 °F - 71.6 °F 89% 29.80 in 6.2 mi Calm Calm - N/A   Scattered Clouds
5:00 AM 75.2 °F - 71.6 °F 89% 29.80 in 6.2 mi Calm Calm - N/A   Mostly Cloudy
6:00 AM 75.2 °F - 73.4 °F 94% 29.83 in 6.2 mi Calm Calm - N/A   Scattered Clouds
7:00 AM 75.2 °F - 73.4 °F 94% 29.83 in 6.2 mi SSE 4.6 mph - N/A   Partly Cloudy
8:00 AM 80.6 °F 86.2 °F 75.2 °F 84% 29.83 in 6.2 mi Calm Calm - N/A   Scattered Clouds
9:00 AM 82.4 °F 89.5 °F 75.2 °F 79% 29.83 in 6.2 mi Calm Calm - N/A   Scattered Clouds
10:00 AM 84.2 °F 94.1 °F 77.0 °F 79% 29.83 in 5.6 mi Calm Calm - N/A   Scattered Clouds
11:00 AM 86.0 °F 95.1 °F 75.2 °F 70% 29.86 in 5.6 mi SSE 4.6 mph - N/A   Mostly Cloudy
12:00 PM 87.8 °F 99.7 °F 77.0 °F 70% 29.83 in 5.6 mi ENE 6.9 mph - N/A Thunderstorm Thunderstorm
12:30 PM - - - N/A% - 5.0 mi SE 6.9 mph - N/A Thunderstorm Thunderstorm
1:00 PM 84.2 °F 94.1 °F 77.0 °F 79% 29.80 in 5.0 mi South 6.9 mph - N/A Rain Rain
1:35 PM - - - N/A% - 3.7 mi SSW 4.6 mph - N/A Rain , Thunderstorm Light Thunderstorms and Rain
2:00 PM 84.2 °F 94.1 °F 77.0 °F 79% 29.80 in 4.3 mi SSW 4.6 mph - N/A Rain , Thunderstorm Light Thunderstorms and Rain
3:00 PM 80.6 °F 86.2 °F 75.2 °F 84% 29.80 in 5.6 mi NNW 4.6 mph - N/A Rain , Thunderstorm Light Thunderstorms and Rain
4:00 PM 78.8 °F - 73.4 °F 83% 29.77 in 6.2 mi Calm Calm - N/A   Mostly Cloudy
4:05 PM - - - N/A% - 5.6 mi Calm Calm - N/A   Light Drizzle
5:00 PM 78.8 °F - 75.2 °F 89% 29.77 in 5.6 mi WSW 4.6 mph - N/A   Light Drizzle
6:00 PM 78.8 °F - 73.4 °F 83% 29.77 in 5.6 mi WSW 6.9 mph - N/A   Light Drizzle
7:00 PM 78.8 °F - 73.4 °F 83% 29.80 in 6.2 mi Calm Calm - N/A   Scattered Clouds
8:00 PM 78.8 °F - 73.4 °F 83% 29.83 in 6.2 mi Calm Calm - N/A   Scattered Clouds
9:00 PM 78.8 °F - 73.4 °F 83% 29.86 in 6.2 mi Calm Calm - N/A   Scattered Clouds
10:00 PM 78.8 °F - 75.2 °F 89% 29.86 in 6.2 mi Calm Calm - N/A   Scattered Clouds
11:00 PM 77.0 °F - 75.2 °F 94% 29.86 in 6.2 mi Calm Calm - N/A   Scattered Clouds